Total_Precipitation_Accumulation
0.18 0.24 0.52 0.68 0.72 0.68 0.65 0.60 0.53 0.50 0.51 0.53 0.52 0.49 0.46 0.45 0.43 0.39 0.38 0.42 0.55 0.69 0.76 0.80 0.87 0.93 0.90 0.78 0.57 0.36 0.27 0.24 0.20 0.17 0.17 0.19 0.24 0.29 0.30 0.30 0.32 0.39 0.50
0.16 0.26 0.53 0.70 0.75 0.65 0.61 0.59 0.56 0.53 0.53 0.56 0.63 0.59 0.52 0.50 0.53 0.53 0.52 0.55 0.63 0.73 0.81 0.86 0.93 0.94 0.87 0.67 0.45 0.29 0.16 0.12 0.08 0.05 0.05 0.07 0.15 0.24 0.25 0.23 0.24 0.40 0.48
0.22 0.33 0.54 0.74 0.75 0.70 0.63 0.58 0.55 0.55 0.58 0.63 0.66 0.68 0.62 0.59 0.59 0.66 0.68 0.67 0.69 0.73 0.81 0.88 0.88 0.87 0.74 0.51 0.33 0.24 0.15 0.10 0.07 0.05 0.07 0.13 0.21 0.33 0.31 0.26 0.32 0.42 0.48
0.30 0.38 0.55 0.76 0.81 0.78 0.71 0.62 0.61 0.62 0.63 0.72 0.76 0.79 0.79 0.74 0.72 0.71 0.73 0.70 0.68 0.69 0.71 0.71 0.61 0.57 0.51 0.38 0.29 0.23 0.16 0.11 0.08 0.08 0.15 0.21 0.30 0.49 0.47 0.40 0.39 0.41 0.44
0.47 0.49 0.69 0.89 0.97 0.94 0.85 0.76 0.72 0.73 0.73 0.77 0.86 0.95 0.98 0.96 0.87 0.79 0.74 0.69 0.64 0.61 0.51 0.45 0.42 0.38 0.34 0.30 0.26 0.20 0.14 0.09 0.08 0.09 0.14 0.22 0.39 0.66 0.55 0.45 0.44 0.46 0.46
0.63 0.69 0.90 1.11 1.21 1.20 1.04 0.94 0.89 0.86 0.83 0.85 0.89 0.95 1.05 1.12 1.07 0.92 0.75 0.60 0.53 0.50 0.43 0.35 0.33 0.32 0.29 0.26 0.21 0.17 0.14 0.10 0.07 0.09 0.13 0.20 0.38 0.66 0.55 0.48 0.44 0.45 0.47
0.68 0.80 1.02 1.30 1.41 1.42 1.30 1.19 1.16 1.10 1.02 0.98 0.98 1.01 1.07 1.09 1.01 0.90 0.70 0.54 0.49 0.48 0.45 0.37 0.34 0.33 0.32 0.28 0.20 0.17 0.14 0.09 0.07 0.10 0.14 0.21 0.41 0.64 0.58 0.50 0.45 0.46 0.45
0.73 0.92 1.16 1.47 1.54 1.56 1.52 1.41 1.37 1.35 1.28 1.20 1.15 1.16 1.16 1.11 0.99 0.86 0.72 0.61 0.53 0.50 0.50 0.45 0.40 0.35 0.35 0.31 0.25 0.18 0.14 0.09 0.08 0.08 0.12 0.18 0.36 0.53 0.49 0.42 0.41 0.43 0.44
0.99 1.14 1.35 1.60 1.71 1.76 1.67 1.55 1.48 1.43 1.41 1.33 1.26 1.19 1.10 1.03 0.97 0.87 0.73 0.66 0.59 0.55 0.57 0.51 0.45 0.38 0.36 0.34 0.30 0.21 0.13 0.09 0.08 0.09 0.10 0.15 0.30 0.45 0.42 0.40 0.41 0.43 0.44
1.40 1.51 1.62 1.71 1.74 1.77 1.73 1.62 1.56 1.48 1.47 1.49 1.40 1.17 1.01 0.93 0.95 0.88 0.69 0.63 0.59 0.57 0.57 0.54 0.48 0.41 0.36 0.32 0.26 0.19 0.14 0.13 0.10 0.09 0.11 0.14 0.27 0.41 0.43 0.43 0.42 0.44 0.45
1.91 1.84 1.90 1.92 1.92 1.90 1.85 1.74 1.74 1.67 1.57 1.52 1.45 1.19 1.03 1.01 0.94 0.87 0.67 0.53 0.53 0.53 0.54 0.54 0.50 0.43 0.34 0.27 0.22 0.20 0.19 0.16 0.13 0.14 0.15 0.20 0.33 0.45 0.49 0.49 0.45 0.45 0.45
2.15 2.07 2.03 2.03 1.96 1.99 1.95 1.92 1.99 1.84 1.68 1.52 1.31 1.22 1.15 1.06 0.95 0.80 0.72 0.60 0.55 0.52 0.55 0.58 0.56 0.49 0.37 0.27 0.24 0.23 0.21 0.18 0.17 0.15 0.17 0.26 0.43 0.56 0.56 0.52 0.47 0.48 0.47
2.26 2.31 2.27 2.24 2.15 2.05 2.09 1.99 1.99 1.97 1.83 1.68 1.43 1.32 1.29 1.27 1.15 1.00 0.88 0.84 0.75 0.63 0.61 0.59 0.60 0.48 0.34 0.27 0.24 0.22 0.20 0.21 0.20 0.18 0.18 0.25 0.42 0.57 0.61 0.59 0.55 0.53 0.50
2.53 2.53 2.55 2.49 2.43 2.22 2.11 2.08 2.06 2.00 1.88 1.74 1.51 1.39 1.37 1.27 1.18 1.04 0.87 0.82 0.80 0.64 0.61 0.57 0.52 0.44 0.37 0.29 0.24 0.23 0.23 0.23 0.21 0.23 0.22 0.23 0.36 0.51 0.61 0.66 0.63 0.58 0.56
2.78 2.81 2.79 2.65 2.58 2.48 2.28 2.12 2.12 2.15 2.04 1.88 1.74 1.51 1.36 1.24 1.10 1.04 0.94 0.92 0.87 0.74 0.64 0.60 0.51 0.49 0.45 0.38 0.30 0.25 0.23 0.23 0.23 0.24 0.23 0.22 0.27 0.39 0.53 0.65 0.73 0.74 0.73
2.95 3.07 3.08 2.92 2.71 2.62 2.41 2.14 2.08 2.19 2.21 2.20 1.97 1.67 1.59 1.45 1.27 1.15 1.08 1.04 0.96 0.87 0.77 0.69 0.59 0.57 0.55 0.50 0.41 0.32 0.27 0.26 0.26 0.26 0.25 0.23 0.24 0.27 0.41 0.59 0.77 0.83 0.83
2.86 3.14 3.28 3.18 3.03 2.80 2.66 2.43 2.17 2.26 2.29 2.28 2.17 1.94 1.81 1.70 1.56 1.42 1.29 1.16 1.03 0.97 0.95 0.92 0.86 0.77 0.69 0.61 0.52 0.44 0.36 0.32 0.29 0.27 0.26 0.25 0.24 0.24 0.32 0.48 0.64 0.77 0.80
2.86 3.00 3.30 3.32 3.28 3.13 2.90 2.68 2.37 2.27 2.28 2.21 2.10 2.02 1.92 1.79 1.69 1.60 1.41 1.28 1.22 1.19 1.14 1.10 1.06 0.97 0.82 0.70 0.60 0.58 0.49 0.40 0.35 0.34 0.32 0.29 0.27 0.23 0.26 0.37 0.46 0.56 0.69
2.83 2.94 3.20 3.34 3.37 3.45 3.32 3.14 2.79 2.46 2.41 2.33 2.15 1.97 1.90 1.84 1.75 1.67 1.52 1.37 1.35 1.34 1.26 1.19 1.16 1.09 0.98 0.85 0.75 0.70 0.66 0.57 0.50 0.48 0.46 0.42 0.37 0.33 0.30 0.35 0.38 0.40 0.50
3.04 3.16 3.25 3.43 3.62 3.82 3.87 3.65 3.38 2.92 2.58 2.45 2.31 2.06 1.91 1.86 1.79 1.71 1.61 1.51 1.43 1.45 1.42 1.33 1.22 1.16 1.09 1.02 0.93 0.85 0.82 0.76 0.67 0.61 0.57 0.52 0.50 0.46 0.42 0.41 0.40 0.37 0.39
3.09 3.29 3.40 3.43 3.63 3.95 3.86 3.55 3.27 2.97 2.71 2.48 2.38 2.27 2.07 1.95 1.85 1.74 1.60 1.60 1.55 1.48 1.46 1.46 1.45 1.40 1.31 1.26 1.25 1.08 0.89 0.85 0.81 0.70 0.66 0.61 0.57 0.56 0.52 0.51 0.48 0.44 0.43
2.84 3.20 3.27 3.46 3.67 3.88 3.79 3.60 3.44 3.32 3.08 2.81 2.66 2.41 2.23 2.07 1.94 1.83 1.68 1.53 1.56 1.56 1.50 1.49 1.52 1.57 1.60 1.58 1.56 1.51 1.28 1.06 0.85 0.72 0.70 0.69 0.67 0.67 0.68 0.65 0.60 0.55 0.52
2.32 2.78 3.00 3.14 3.48 3.68 3.85 4.10 4.04 3.84 3.45 2.91 2.62 2.48 2.32 2.30 2.20 2.01 1.91 1.76 1.59 1.58 1.53 1.46 1.40 1.39 1.48 1.59 1.64 1.72 1.58 1.27 0.99 0.83 0.74 0.71 0.70 0.69 0.68 0.70 0.67 0.64 0.60
1.94 2.36 2.75 3.00 3.25 3.40 3.52 3.72 3.81 3.66 3.28 2.81 2.51 2.52 2.57 2.50 2.46 2.37 2.20 2.06 1.87 1.73 1.65 1.60 1.58 1.51 1.49 1.50 1.53 1.51 1.45 1.30 1.24 1.10 0.89 0.80 0.76 0.74 0.72 0.70 0.66 0.65 0.67
1.68 2.11 2.49 2.78 3.05 3.17 3.24 3.31 3.46 3.54 3.44 3.21 2.86 2.69 2.69 2.63 2.53 2.44 2.36 2.25 2.07 1.92 1.85 1.82 1.75 1.72 1.69 1.61 1.54 1.47 1.45 1.28 1.16 1.18 1.04 0.87 0.86 0.82 0.80 0.77 0.73 0.71 0.72
1.49 1.79 2.17 2.47 2.81 3.02 3.06 3.20 3.27 3.23 3.30 3.25 2.92 2.77 2.69 2.77 2.69 2.50 2.35 2.29 2.20 2.08 1.99 1.97 1.96 1.89 1.80 1.73 1.69 1.62 1.60 1.53 1.32 1.27 1.20 1.01 0.96 0.89 0.87 0.85 0.85 0.84 0.83